Regional Weather Roundup
Issued by NWS Charleston, WV

Home | Current Version | Previous Version | Text Only | Print | Product List | Glossary On
Versions: 1 2 3 4 5 6 7 8 9 10 11 12 13 14 15 16 17 18 19 20 21 22 23 24 25 26 27 28 29 30 31 32 33 34 35 36 37 38 39 40 41 42 43 44 45 46 47 48 49 50
000
ASUS41 KRLX 300810
RWRRLX
West Virginia Regional Weather Roundup
National Weather Service Charleston WV
300 AM EST FRI JAN 30 2015

Note: "fair" indicates few or no clouds below 12,000 feet with no
significant weather and/or obstructions to visibility.

WVZ003-300900-
Northern Panhandle of West Virginia

CITY           SKY/WX    TMP DP  RH WIND       PRES   REMARKS
WHEELING       CLOUDY    30  28  92 W8        30.01S
$$

WVZ009-300900-
Northwest West Virginia

CITY           SKY/WX    TMP DP  RH WIND       PRES   REMARKS
PARKERSBURG    CLOUDY    33  29  85 W8        30.12R
$$

WVZ006-300900-
Western West Virginia

CITY           SKY/WX    TMP DP  RH WIND       PRES   REMARKS
HUNTINGTON     CLOUDY    33  28  81 W6        30.17R
$$

WVZ015-300900-
West Central West Virginia

CITY           SKY/WX    TMP DP  RH WIND       PRES   REMARKS
CHARLESTON     FLURRIES  33  29  85 W8        30.13R
$$

WVZ022-031-300900-
North Central West Virginia

CITY           SKY/WX    TMP DP  RH WIND       PRES   REMARKS
CLARKSBURG     LGT SNOW  32  30  92 W14       30.02R VSB 1
MORGANTOWN     CLOUDY    31  26  82 CALM      30.02R HAZE
$$

WVZ025-035-042-045-300900-
Southern West Virginia

CITY           SKY/WX    TMP DP  RH WIND       PRES   REMARKS
BECKLEY        LGT SNOW  29  25  85 NW17G26   30.03R VSB 1
LOGAN          CLOUDY    32  30  93 NW8G15    30.12R FOG
BLUEFIELD      CLOUDY    31  26  82 NW14G30   30.01S
LEWISBURG      CLOUDY    33  26  76 NW10G16   30.00R
$$

WVZ047-300900-
Northern Mountains of West Virginia

CITY           SKY/WX    TMP DP  RH WIND       PRES   REMARKS
ELKINS         LGT SNOW  31  28  89 W10G21    29.99R FOG
$$

WVZ052-300900-
Eastern Panhandle of West Virginia

CITY           SKY/WX    TMP DP  RH WIND       PRES   REMARKS
MARTINSBURG    CLOUDY    40  28  62 W16G24    29.93R
PETERSBURG     CLOUDY    38  25  59 W7G21     29.96S
$$


USA.gov is the U.S. government's official web portal to all federal, state and local government web resources and services.